AFR75MT LFRS-LFPG

Flight info

Callsign AFR75MT
Flight time 0h 42m
Altitude 24000
Route ANG UN741 KEPER
Aircraft A320/M-SDE3FGHIRWY/LB1

Departure

Time 2026-05-04 14:34
Airport Nantes Atlantique Airport (LFRS)

Arrival

Time 2026-05-04 15:16
Airport Charles de Gaulle International Airport (LFPG)
Time Latitude Longitude Altitude Speed Heading
2026-05-04 14:05 47.15716 -1.60264 90 ft 0 kts 44°
2026-05-04 14:25 47.15714 -1.60267 93 ft 3 kts 44°
2026-05-04 14:25 47.15676 -1.60321 90 ft 4 kts 34°
2026-05-04 14:25 47.15655 -1.60334 90 ft 4 kts 336°
2026-05-04 14:26 47.15638 -1.60315 90 ft 2 kts 318°
2026-05-04 14:26 47.15636 -1.60313 90 ft 0 kts 318°
2026-05-04 14:28 47.15650 -1.60330 91 ft 9 kts 319°
2026-05-04 14:28 47.15699 -1.60393 90 ft 9 kts 319°
2026-05-04 14:29 47.15837 -1.60408 92 ft 14 kts 28°
2026-05-04 14:29 47.15994 -1.60289 91 ft 12 kts 27°
2026-05-04 14:30 47.16061 -1.60238 92 ft 11 kts 27°
2026-05-04 14:30 47.16124 -1.60190 90 ft 10 kts 27°
2026-05-04 14:30 47.16233 -1.60107 90 ft 8 kts 27°
2026-05-04 14:31 47.16267 -1.60081 91 ft 0 kts 27°
2026-05-04 14:32 47.16269 -1.60080 90 ft 3 kts 27°
2026-05-04 14:32 47.16330 -1.60052 89 ft 12 kts 356°
2026-05-04 14:33 47.16419 -1.60089 86 ft 14 kts 341°
2026-05-04 14:33 47.16459 -1.60166 87 ft 8 kts 297°
2026-05-04 14:33 47.16448 -1.60210 89 ft 3 kts 216°
2026-05-04 14:33 47.16420 -1.60232 87 ft 13 kts 208°
2026-05-04 14:34 47.16094 -1.60481 86 ft 93 kts 207°
2026-05-04 14:34 47.15329 -1.61068 95 ft 152 kts 209°
2026-05-04 14:34 47.14386 -1.61808 787 ft 152 kts 209°
2026-05-04 14:34 47.13436 -1.62555 1534 ft 157 kts 209°
2026-05-04 14:35 47.12473 -1.63298 2291 ft 156 kts 208°
2026-05-04 14:35 47.11508 -1.64045 2994 ft 161 kts 209°
2026-05-04 14:35 47.10444 -1.64872 3428 ft 184 kts 208°
2026-05-04 14:35 47.09183 -1.65590 3826 ft 208 kts 186°
2026-05-04 14:36 47.07706 -1.65180 4198 ft 232 kts 150°
2026-05-04 14:36 47.06491 -1.63490 4686 ft 255 kts 119°
2026-05-04 14:36 47.05961 -1.60954 5395 ft 267 kts 91°
2026-05-04 14:36 47.06234 -1.58272 6389 ft 269 kts 67°
2026-05-04 14:37 47.07273 -1.55994 7345 ft 272 kts 46°
2026-05-04 14:37 47.08601 -1.53989 8331 ft 276 kts 46°
2026-05-04 14:37 47.09955 -1.51965 9297 ft 281 kts 46°
2026-05-04 14:37 47.11338 -1.49898 10222 ft 287 kts 46°
2026-05-04 14:38 47.12747 -1.47788 11066 ft 292 kts 47°
2026-05-04 14:38 47.14175 -1.45638 11912 ft 297 kts 47°
2026-05-04 14:38 47.15628 -1.43441 12765 ft 302 kts 47°
2026-05-04 14:38 47.17104 -1.41204 13601 ft 307 kts 47°
2026-05-04 14:39 47.18599 -1.38934 14442 ft 311 kts 47°
2026-05-04 14:39 47.20119 -1.36627 15185 ft 319 kts 48°
2026-05-04 14:39 47.21715 -1.34204 15413 ft 341 kts 48°
2026-05-04 14:40 47.25119 -1.29030 16466 ft 362 kts 48°
2026-05-04 14:40 47.26881 -1.26347 17190 ft 368 kts 48°
2026-05-04 14:40 47.28669 -1.23618 17978 ft 373 kts 49°
2026-05-04 14:40 47.30482 -1.20846 18638 ft 378 kts 49°
2026-05-04 14:41 47.32316 -1.18041 19249 ft 382 kts 49°
2026-05-04 14:41 47.34171 -1.15206 19869 ft 386 kts 49°
2026-05-04 14:41 47.37940 -1.09438 21062 ft 394 kts 49°
2026-05-04 14:42 47.41775 -1.03559 22276 ft 401 kts 49°
2026-05-04 14:42 47.43711 -1.00587 22866 ft 404 kts 49°
2026-05-04 14:42 47.45666 -0.97578 23481 ft 407 kts 49°
2026-05-04 14:43 47.47637 -0.94537 23833 ft 411 kts 49°
2026-05-04 14:43 47.49619 -0.91471 23927 ft 415 kts 49°
2026-05-04 14:43 47.51610 -0.88371 23954 ft 415 kts 52°
2026-05-04 14:43 47.53336 -0.84988 23952 ft 411 kts 62°
2026-05-04 14:44 47.54639 -0.81255 23944 ft 405 kts 70°
2026-05-04 14:44 47.55602 -0.77352 23958 ft 403 kts 73°
2026-05-04 14:44 47.56544 -0.73464 23960 ft 403 kts 72°
2026-05-04 14:44 47.57499 -0.69551 23962 ft 403 kts 72°
2026-05-04 14:45 47.58450 -0.65655 23965 ft 403 kts 72°
2026-05-04 14:45 47.59403 -0.61754 23971 ft 402 kts 72°
2026-05-04 14:45 47.60339 -0.57918 23968 ft 400 kts 72°
2026-05-04 14:45 47.61294 -0.54006 23972 ft 399 kts 73°
2026-05-04 14:46 47.62235 -0.50134 23969 ft 398 kts 73°
2026-05-04 14:46 47.63155 -0.46324 23969 ft 398 kts 73°
2026-05-04 14:46 47.64085 -0.42454 23970 ft 398 kts 73°
2026-05-04 14:46 47.65011 -0.38592 23971 ft 398 kts 73°
2026-05-04 14:47 47.65937 -0.34722 23972 ft 398 kts 73°
2026-05-04 14:47 47.66863 -0.30848 23970 ft 398 kts 73°
2026-05-04 14:47 47.67787 -0.26982 23971 ft 398 kts 73°
2026-05-04 14:47 47.68708 -0.23122 23968 ft 397 kts 73°
2026-05-04 14:48 47.69629 -0.19250 23962 ft 397 kts 73°
2026-05-04 14:48 47.70548 -0.15382 23958 ft 397 kts 73°
2026-05-04 14:48 47.71469 -0.11515 23959 ft 397 kts 73°
2026-05-04 14:48 47.72389 -0.07647 23957 ft 397 kts 73°
2026-05-04 14:49 47.73375 -0.03808 23960 ft 400 kts 66°
2026-05-04 14:49 47.74849 -0.00282 23949 ft 402 kts 58°
2026-05-04 14:49 47.76431 0.03175 23942 ft 407 kts 57°
2026-05-04 14:49 47.78038 0.06655 23946 ft 410 kts 57°
2026-05-04 14:50 47.79657 0.10145 23959 ft 410 kts 57°
2026-05-04 14:50 47.81277 0.13638 23972 ft 409 kts 57°
2026-05-04 14:50 47.82880 0.17112 23968 ft 407 kts 57°
2026-05-04 14:50 47.84480 0.20594 23974 ft 407 kts 57°
2026-05-04 14:51 47.86071 0.24072 23977 ft 407 kts 57°
2026-05-04 14:51 47.87666 0.27558 23970 ft 407 kts 57°
2026-05-04 14:51 47.89259 0.31045 23973 ft 407 kts 57°
2026-05-04 14:51 47.90851 0.34539 23968 ft 407 kts 58°
2026-05-04 14:52 47.92445 0.38025 23962 ft 407 kts 56°
2026-05-04 14:52 47.94275 0.41252 23960 ft 409 kts 46°
2026-05-04 14:52 47.96459 0.43986 23951 ft 413 kts 36°
2026-05-04 14:52 47.98826 0.46455 23971 ft 417 kts 36°
2026-05-04 14:53 48.01188 0.48921 23765 ft 411 kts 36°
2026-05-04 14:53 48.03513 0.51361 23529 ft 406 kts 37°
2026-05-04 14:53 48.05812 0.53786 23247 ft 403 kts 36°
2026-05-04 14:53 48.08094 0.56195 22971 ft 401 kts 37°
2026-05-04 14:54 48.10366 0.58598 22692 ft 399 kts 37°
2026-05-04 14:54 48.11870 0.60188 22502 ft 399 kts 36°
2026-05-04 14:54 48.14130 0.62581 22231 ft 397 kts 37°
2026-05-04 14:54 48.16376 0.64961 21968 ft 395 kts 37°
2026-05-04 14:55 48.18601 0.67317 21536 ft 389 kts 37°
2026-05-04 14:55 48.20801 0.69647 21033 ft 385 kts 37°
2026-05-04 14:55 48.22981 0.71958 20529 ft 382 kts 37°
2026-05-04 14:55 48.25144 0.74256 20021 ft 380 kts 37°
2026-05-04 14:56 48.27290 0.76539 19494 ft 378 kts 37°
2026-05-04 14:56 48.29425 0.78811 18980 ft 376 kts 37°
2026-05-04 14:56 48.31550 0.81080 18473 ft 374 kts 37°
2026-05-04 14:56 48.33580 0.83500 17913 ft 371 kts 46°
2026-05-04 14:57 48.35244 0.86416 17393 ft 365 kts 57°
2026-05-04 14:57 48.36501 0.89697 16917 ft 360 kts 64°
2026-05-04 14:57 48.37650 0.93030 16427 ft 358 kts 64°
2026-05-04 14:57 48.38795 0.96335 15945 ft 355 kts 64°
2026-05-04 14:58 48.39931 0.99616 15477 ft 352 kts 64°
2026-05-04 14:58 48.41058 1.02874 14997 ft 350 kts 64°
2026-05-04 14:58 48.42174 1.06098 14633 ft 344 kts 64°
2026-05-04 14:58 48.43276 1.09275 14329 ft 341 kts 64°
2026-05-04 14:59 48.44366 1.12418 14012 ft 337 kts 64°
2026-05-04 14:59 48.45446 1.15542 13695 ft 335 kts 63°
2026-05-04 14:59 48.47573 1.21730 13049 ft 331 kts 64°
2026-05-04 15:00 48.48622 1.24806 12734 ft 329 kts 64°
2026-05-04 15:00 48.49656 1.27858 12427 ft 326 kts 64°
2026-05-04 15:00 48.50690 1.30896 12122 ft 325 kts 63°
2026-05-04 15:01 48.52752 1.36943 11660 ft 324 kts 63°
2026-05-04 15:01 48.53775 1.39915 11448 ft 323 kts 63°
2026-05-04 15:01 48.54818 1.42906 11257 ft 322 kts 63°
2026-05-04 15:01 48.55860 1.45890 11059 ft 320 kts 63°
2026-05-04 15:02 48.56895 1.48861 10862 ft 320 kts 63°
2026-05-04 15:02 48.57934 1.51825 10665 ft 318 kts 61°
2026-05-04 15:02 48.59292 1.54443 10423 ft 318 kts 45°
2026-05-04 15:02 48.60862 1.56788 10199 ft 317 kts 45°
2026-05-04 15:03 48.62432 1.59114 9950 ft 315 kts 45°
2026-05-04 15:03 48.63974 1.61395 9809 ft 304 kts 45°
2026-05-04 15:03 48.65457 1.63592 9672 ft 290 kts 45°
2026-05-04 15:03 48.66880 1.65705 9541 ft 285 kts 45°
2026-05-04 15:04 48.68286 1.67804 9410 ft 283 kts 45°
2026-05-04 15:04 48.69677 1.69888 9276 ft 282 kts 45°
2026-05-04 15:04 48.71070 1.71974 9143 ft 281 kts 45°
2026-05-04 15:04 48.72459 1.74050 9011 ft 280 kts 45°
2026-05-04 15:05 48.73846 1.76125 8887 ft 280 kts 45°
2026-05-04 15:05 48.75226 1.78192 8757 ft 279 kts 45°
2026-05-04 15:05 48.76604 1.80260 8627 ft 278 kts 45°
2026-05-04 15:05 48.77981 1.82322 8497 ft 278 kts 45°
2026-05-04 15:06 48.79354 1.84380 8369 ft 277 kts 45°
2026-05-04 15:06 48.80723 1.86437 8239 ft 277 kts 45°
2026-05-04 15:06 48.82086 1.88491 8120 ft 276 kts 45°
2026-05-04 15:07 48.84798 1.92576 7863 ft 268 kts 45°
2026-05-04 15:07 48.86085 1.94518 7744 ft 255 kts 45°
2026-05-04 15:07 48.87312 1.96367 7599 ft 244 kts 45°
2026-05-04 15:07 48.88529 1.98207 7081 ft 250 kts 45°
2026-05-04 15:08 48.89779 2.00095 6511 ft 257 kts 45°
2026-05-04 15:08 48.91000 2.01943 6281 ft 239 kts 45°
2026-05-04 15:08 48.92150 2.03687 5990 ft 230 kts 45°
2026-05-04 15:08 48.93294 2.05426 5987 ft 234 kts 46°
2026-05-04 15:09 48.94428 2.07150 5985 ft 226 kts 46°
2026-05-04 15:09 48.95518 2.08806 5986 ft 222 kts 46°
2026-05-04 15:09 48.96557 2.10506 5968 ft 214 kts 56°
2026-05-04 15:10 48.97310 2.14773 5561 ft 215 kts 84°
2026-05-04 15:10 48.97434 2.17035 5281 ft 215 kts 84°
2026-05-04 15:10 48.97687 2.21489 4739 ft 207 kts 84°
2026-05-04 15:11 48.97809 2.23634 4479 ft 198 kts 84°
2026-05-04 15:11 48.97924 2.25648 4203 ft 184 kts 84°
2026-05-04 15:11 48.98032 2.27547 3958 ft 177 kts 84°
2026-05-04 15:11 48.98137 2.29415 3721 ft 172 kts 85°
2026-05-04 15:12 48.98237 2.31189 3502 ft 169 kts 84°
2026-05-04 15:12 48.98336 2.32959 3274 ft 166 kts 85°
2026-05-04 15:12 48.98434 2.34693 3052 ft 163 kts 85°
2026-05-04 15:12 48.98529 2.36402 2835 ft 160 kts 85°
2026-05-04 15:13 48.98623 2.38083 2620 ft 159 kts 85°
2026-05-04 15:13 48.98715 2.39746 2411 ft 158 kts 85°
2026-05-04 15:13 48.98808 2.41416 2196 ft 157 kts 85°
2026-05-04 15:13 48.98899 2.43070 1986 ft 155 kts 85°
2026-05-04 15:14 48.98984 2.44617 1794 ft 140 kts 85°
2026-05-04 15:14 48.99065 2.46051 1576 ft 133 kts 84°
2026-05-04 15:14 48.99136 2.47440 1425 ft 130 kts 85°
2026-05-04 15:14 48.99218 2.48811 1243 ft 130 kts 85°
2026-05-04 15:15 48.99300 2.50177 1048 ft 130 kts 85°
2026-05-04 15:15 48.99378 2.51553 855 ft 131 kts 87°
2026-05-04 15:15 48.99443 2.52942 686 ft 132 kts 87°
2026-05-04 15:16 48.99594 2.55724 360 ft 129 kts 87°
2026-05-04 15:16 48.99655 2.56904 357 ft 89 kts 85°
2026-05-04 15:16 48.99717 2.57991 361 ft 31 kts 76°
2026-05-04 15:17 48.99793 2.58279 361 ft 19 kts 65°
2026-05-04 15:17 48.99872 2.58537 359 ft 11 kts 65°
2026-05-04 15:17 48.99901 2.58633 356 ft 9 kts 65°
2026-05-04 15:18 48.99933 2.58738 362 ft 15 kts 65°
2026-05-04 15:18 48.99954 2.58928 357 ft 20 kts 85°
2026-05-04 15:18 48.99965 2.59145 354 ft 21 kts 85°
2026-05-04 15:19 48.99990 2.59480 362 ft 9 kts 58°
2026-05-04 15:19 49.00045 2.59505 356 ft 8 kts 357°
2026-05-04 15:19 49.00197 2.59487 354 ft 18 kts 355°
2026-05-04 15:20 49.00352 2.59466 354 ft 26 kts 355°
2026-05-04 15:20 49.00540 2.59446 354 ft 28 kts 356°
2026-05-04 15:20 49.00701 2.59425 354 ft 17 kts 356°
2026-05-04 15:20 49.00813 2.59411 354 ft 15 kts 354°
2026-05-04 15:21 49.00883 2.59336 361 ft 13 kts 272°
2026-05-04 15:21 49.00876 2.59199 360 ft 15 kts 266°
2026-05-04 15:21 49.00853 2.58768 361 ft 24 kts 265°
2026-05-04 15:22 49.00837 2.58506 357 ft 26 kts 264°
2026-05-04 15:22 49.00829 2.58299 355 ft 16 kts 268°
2026-05-04 15:22 49.00807 2.57920 361 ft 20 kts 265°
2026-05-04 15:23 49.00797 2.57733 355 ft 10 kts 259°
2026-05-04 15:23 49.00772 2.57683 359 ft 2 kts 223°
2026-05-04 15:23 49.00760 2.57665 359 ft 5 kts 225°
2026-05-04 15:23 49.00734 2.57626 362 ft 5 kts 225°
2026-05-04 15:24 49.00694 2.57563 357 ft 2 kts 226°
2026-05-04 15:24 49.00692 2.57559 361 ft 0 kts 226°